User: anonymous   Login
Location: Unspecified
(0.0000°N, 0.0000°E)
Time: 16:51:55
(UTC+00:00)
Language:

ISS - Orbit

View from above orbital plane
View from above orbital plane
View from above satellite
View from above satellite

Ground track
Ground track

The orbit data is extracted from the following two-line orbital elements,

1 25544U 98067A   15027.38909722  .00009874  00000-0  15883-3 0  7854
2 25544 051.6475 067.0509 0005650 310.3369 233.0114 15.53657497926124
Epoch (UTC): 27 January 2015 09:20:18
Eccentricity: 0.0005650
inclination: 51.6475°
perigee height: 402 km
apogee height: 410 km
right ascension of ascending node: 67.0509°
argument of perigee: 310.3369°
revolutions per day: 15.53657497
mean anomaly at epoch: 233.0114°
orbit number at epoch: 92612

The dashed part of the orbit path shows where the satellite is in the earth's shadow,  

DLR